User: anonymous   Login
Location: Unspecified
(0.0000°N, 0.0000°E)
Time: 07:18:44
(UTC+00:00)
Language:

ISIS 1 - Orbit

View from above orbital plane
View from above orbital plane
View from above satellite
View from above satellite

Ground track
Ground track

The orbit is defined by the following mean orbital elements,

1 03669U          26106.59691675 +.00000000 +00000-0 +55327-4 0 00006
2 03669  88.4466 151.1658 1707396  12.6822 351.2077 11.30422974    01
Epoch (UTC): 16 April 2026 14:19:33
Eccentricity: 0.1707396
inclination: 88.4466°
perigee height: 576 km
apogee height: 3440 km
right ascension of ascending node: 151.1658°
argument of perigee: 12.6822°
revolutions per day: 11.30422974
mean anomaly at epoch: 351.2077°

The dashed part of the orbit path shows where the satellite is in the earth's shadow,  

DLR